Location: Unspecified
(0.0000°N, 0.0000°E)
Time: 17:22:47
(UTC+00:00)

A-11 Canister half - Pass Details

Date: 08 February 2023
Orbit: 1525 x 1683 km, 47.3° (Epoch: 08 December)

Event Time Altitude Azimuth Distance (km) Brightness Sun altitude
Rises 02:45:53 0° 243° (WSW) 4,775 - -49.6°
Reaches altitude 10° 02:49:30 10° 253° (WSW) 3,765 - -48.8°
Maximum altitude 02:57:29 31° 311° (NW) 2,463 - -46.9°
Drops below altitude 10° 03:05:21 10° 9° (N) 3,684 - -45.1°
Exits shadow 03:08:30 - 19° (NNE) 4,548 11.5 -44.4°
Sets 03:08:53 0° 20° (NNE) 4,659 11.5 -44.3°
